Location: ??????
(55.7522°N, 37.6156°E)
Time: 16:52:12
(UTC+00:00)

Cosmos 2208 Rocket - Pass Details

Date: 14 June 2025
Orbit: 751 x 801 km, 74.0° (Epoch: 12 July)

Event Time Altitude Azimuth Distance (km) Brightness Sun altitude
Rises 23:06:49 0° 332° (NNW) 3,220 7.9 -8.3°
Reaches altitude 10° 23:09:13 10° 335° (NNW) 2,289 7.1 -8.2°
Maximum altitude 23:14:22 66° 58° (ENE) 825 4.4 -7.9°
Drops below altitude 10° 23:19:30 10° 141° (SE) 2,278 6.2 -7.6°
Sets 23:21:53 0° 144° (SE) 3,203 6.9 -7.4°
